Kejimkujik, Nova Scotia

9:13 AM AST on February 26, 2017 (GMT -0400)
Kejimkujik

Weather History for CWKG - February, 2012

Change the Weather History Date:

Wednesday, February 1, 2012

  Actual Average (CYZX) Record (CYZX)
Temperature  
Mean Temperature 27 °F -  
Max Temperature 34 °F 28 °F 56 °F (2016)
Min Temperature 20 °F 12 °F -9 °F (2005)
Degree Days  
Heating Degree Days 38    
Moisture  
Dew Point 29 °F    
Average Humidity 99    
Maximum Humidity 100    
Minimum Humidity 96    
Precipitation  
Precipitation 0.04 in - - ()
Sea Level Pressure  
Sea Level Pressure 29.93 in    
Wind  
Wind Speed 1 mph ()    
Max Wind Speed 7 mph    
Max Gust Speed -    
Averages and records for this station are not official NWS values.
T = Trace of Precipitation, MM = Missing Value Source: Averaged Metar Reports

Daily Weather History Graph

Daily Weather History Graph

Search for Another Location

Airport or City:

Trip Planner

Search our weather history database for the weather conditions in past years. The results will help you decide how hot, cold, wet, or windy it might be!

Date:

Astronomy

Feb. 01, 2012 Rise Set
Actual Time 7:39 AM AST 5:29 PM AST
Civil Twilight 7:08 AM AST 6:00 PM AST
Nautical Twilight 6:34 AM AST 6:35 PM AST
Astronomical Twilight 5:59 AM AST 7:09 PM AST
Moon 11:51 AM AST (2/1) 2:24 AM AST (2/1)
Length of Visible Light 10h 51m
Length of Day
9h 49m
Waxing Gibbous, 64% of the Moon is Illuminated
Feb 1
Waxing Gibbous
Feb 7
Full
Feb 14
Last Quarter
Feb 21
New
Feb 29
First Quarter

Hourly Weather History & Observations

Time (AST) Temp. Windchill Dew Point Humidity Pressure Visibility Wind Dir Wind Speed Gust Speed Precip Events Conditions
12:00 AM 21.6 °F - 20.8 °F 97% 30.18 in - Calm Calm - N/A   Unknown
1:00 AM 21.7 °F - 21.2 °F 98% 30.16 in - Calm Calm - N/A   Unknown
2:00 AM 22 °F - 21 °F 96% 30.14 in - Calm Calm - -  
2:00 AM 21.9 °F - 21.4 °F 98% 30.14 in - Calm Calm - N/A   Unknown
3:00 AM 22.5 °F - 21.9 °F 98% 30.13 in - Calm Calm - N/A   Unknown
4:00 AM 23.2 °F - 22.8 °F 99% 30.11 in - Calm Calm - N/A   Unknown
5:00 AM 23.9 °F - 23.7 °F 99% 30.09 in - Calm Calm - N/A   Unknown
6:00 AM 24.6 °F - 24.6 °F 100% 30.07 in - Calm Calm - 0.03 in   Unknown
7:00 AM 25.5 °F - 25.5 °F 100% 30.05 in - Calm Calm - N/A   Unknown
8:00 AM 27 °F - 27 °F 98% 30.03 in - SE 3.5 mph - -  
8:00 AM 26.6 °F 22.6 °F 26.6 °F 100% 30.03 in - SE 3.5 mph - N/A   Unknown
9:00 AM 29.1 °F 22.1 °F 29.1 °F 100% 29.99 in - SE 6.9 mph - N/A   Unknown
10:00 AM 30.9 °F 27.5 °F 30.9 °F 100% 29.99 in - SE 3.5 mph - 0.02 in   Unknown
11:00 AM 31.8 °F 27.3 °F 31.8 °F 100% 29.95 in - ESE 4.6 mph - N/A   Unknown
12:00 PM 31.6 °F 26.0 °F 31.6 °F 100% 29.89 in - ESE 5.8 mph - N/A   Unknown
1:00 PM 33.3 °F 28.9 °F 33.3 °F 100% 29.83 in - ESE 4.6 mph - N/A   Unknown
2:00 PM 34 °F - 34 °F 100% 29.80 in - ESE 2.3 mph - -  
2:00 PM 34.2 °F - 34.2 °F 100% 29.80 in - ESE 2.3 mph - N/A   Unknown
3:00 PM 34.5 °F 31.6 °F 34.5 °F 100% 29.77 in - East 3.5 mph - N/A   Unknown
4:00 PM 34.7 °F - 34.7 °F 100% 29.75 in - East 1.2 mph - N/A   Unknown
5:00 PM 34.5 °F - 34.5 °F 100% 29.73 in - ESE 1.2 mph - 0.02 in   Unknown
6:00 PM 33.8 °F - 33.8 °F 100% 29.74 in - West 1.2 mph - N/A   Unknown
7:00 PM 34.0 °F - 34.0 °F 100% 29.75 in - West 1.2 mph - 0.02 in   Unknown
8:00 PM 34 °F - 34 °F 100% 29.76 in - WNW 1.2 mph - -  
8:00 PM 34.0 °F - 34.0 °F 100% 29.76 in - WNW 1.2 mph - N/A   Unknown
9:00 PM 34.0 °F - 34.0 °F 100% 29.77 in - Calm Calm - N/A   Unknown
10:00 PM 34.0 °F - 34.0 °F 100% 29.78 in - Calm Calm - 0.03 in   Unknown
11:00 PM 34.0 °F - 34.0 °F 100% 29.79 in - NW 1.2 mph - 0.02 in   Unknown